Change the Weather History Date:

Saturday, April 26, 2014

  Actual Average Record
Temperature  
Mean Temperature 64 °F 62 °F  
Max Temperature 83 °F 73 °F 91 °F (1989)
Min Temperature 45 °F 51 °F 36 °F (1919)
Degree Days  
Heating Degree Days 1 5  
Month to date heating degree days 141 202  
Since 1 July heating degree days 3868 3613  
Cooling Degree Days 0 2  
Month to date cooling degree days 28 32  
Year to date cooling degree days 28 40  
Growing Degree Days 14 (Base 50)    
Moisture  
Dew Point 45 °F    
Average Humidity 58    
Maximum Humidity 92    
Minimum Humidity 24    
Precipitation  
Precipitation 0.00 in 0.15 in 1.56 in (1877)
Month to date precipitation 3.43 3.38  
Year to date precipitation 15.49 15.18  
Snow  
Snow 0.00 in 0.00 in 0.00 in (2002)
Month to date snowfall 0.0 0.1  
Since 1 July snowfall 1.6 6.4  
Snow Depth 0.00 in    
Sea Level Pressure  
Sea Level Pressure 29.96 in    
Wind  
Wind Speed 3 mph (South)    
Max Wind Speed 14 mph    
Max Gust Speed 17 mph    
Visibility 10 miles    
Events      
T = Trace of Precipitation, MM = Missing Value Source: NWS Daily Summary

Daily Weather History Graph

Daily Weather History Graph

Search for Another Location

Airport or City:

Trip Planner

Search our weather history database for the weather conditions in past years. The results will help you decide how hot, cold, wet, or windy it might be!

Date:

Astronomy

Apr. 26, 2014 Rise Set
Actual Time 5:59 AM CDT 7:29 PM CDT
Civil Twilight 5:32 AM CDT 7:57 PM CDT
Nautical Twilight 4:59 AM CDT 8:29 PM CDT
Astronomical Twilight 4:25 AM CDT 9:04 PM CDT
Moon 4:18 AM CDT (4/26) 5:02 PM CDT (4/26)
Length of Visible Light 14h 24m
Length of Day
13h 30m
Waning Crescent, 8% of the Moon is Illuminated
Apr 26
Waning Crescent
Apr 29
New
May 6
First Quarter
May 14
Full
May 21
Last Quarter

Hourly Weather History & Observations

Time (CDT) Temp. Windchill Dew Point Humidity Pressure Visibility Wind Dir Wind Speed Gust Speed Precip Events Conditions
12:53 AM 50.0 °F - 46.0 °F 86% 29.97 in 10.0 mi South 6.9 mph - N/A   Clear
1:53 AM 50.0 °F - 46.0 °F 86% 29.96 in 10.0 mi Calm Calm - N/A   Mostly Cloudy
2:53 AM 48.9 °F - 45.0 °F 86% 29.98 in 10.0 mi Calm Calm - N/A   Scattered Clouds
3:53 AM 48.0 °F - 45.0 °F 89% 29.98 in 10.0 mi Calm Calm - N/A   Clear
4:53 AM 45.0 °F 41.8 °F 43.0 °F 93% 29.97 in 10.0 mi South 5.8 mph - N/A   Clear
5:53 AM 48.0 °F - 44.1 °F 86% 30.00 in 10.0 mi Calm Calm - N/A   Clear
6:53 AM 48.9 °F - 45.0 °F 86% 30.01 in 10.0 mi Calm Calm - N/A   Clear
7:53 AM 54.0 °F - 48.0 °F 80% 30.01 in 10.0 mi Calm Calm - N/A   Clear
8:53 AM 61.0 °F - 46.9 °F 60% 30.02 in 10.0 mi South 3.5 mph - N/A   Partly Cloudy
9:53 AM 69.1 °F - 44.1 °F 40% 30.02 in 10.0 mi SE 6.9 mph - N/A   Partly Cloudy
10:53 AM 72.0 °F - 42.1 °F 34% 30.02 in 10.0 mi Calm Calm - N/A   Mostly Cloudy
11:53 AM 75.9 °F - 39.0 °F 26% 30.01 in 10.0 mi SSW 6.9 mph - N/A   Mostly Cloudy
12:53 PM 78.1 °F - 39.9 °F 25% 29.98 in 10.0 mi Variable 4.6 mph - N/A   Mostly Cloudy
1:53 PM 80.1 °F - 42.1 °F 26% 29.97 in 10.0 mi Calm Calm - N/A   Mostly Cloudy
2:53 PM 81.0 °F - 43.0 °F 26% 29.96 in 10.0 mi Variable 5.8 mph - N/A   Scattered Clouds
3:53 PM 82.0 °F - 43.0 °F 25% 29.94 in 10.0 mi West 8.1 mph - N/A   Scattered Clouds
4:53 PM 82.0 °F - 43.0 °F 25% 29.93 in 10.0 mi Variable 6.9 mph - N/A   Scattered Clouds
5:53 PM 79.0 °F - 46.0 °F 31% 29.91 in 10.0 mi SW 3.5 mph - N/A   Mostly Cloudy
6:53 PM 75.0 °F - 48.9 °F 40% 29.90 in 10.0 mi SSW 4.6 mph - N/A   Mostly Cloudy
7:53 PM 73.9 °F - 45.0 °F 35% 29.91 in 10.0 mi South 3.5 mph - N/A   Clear
8:53 PM 70.0 °F - 46.9 °F 44% 29.91 in 10.0 mi South 4.6 mph - N/A   Scattered Clouds
9:53 PM 66.9 °F - 48.9 °F 52% 29.92 in 10.0 mi South 3.5 mph - N/A   Mostly Cloudy
10:53 PM 64.9 °F - 48.0 °F 54% 29.92 in 10.0 mi Calm Calm - N/A   Scattered Clouds
11:53 PM 64.9 °F - 46.9 °F 52% 29.91 in 10.0 mi SSE 4.6 mph - N/A   Scattered Clouds